Lid_Strength_Index
6 4 4 3 3 3 3 3 2 2 2 2 3 3 4 6 7 8 10 12 13 13 14 14 14 14 14 14 14 14 14 14
5 4 4 4 5 5 5 4 3 2 2 3 4 4 5 6 8 10 12 13 14 13 14 14 14 14 14 13 13 14 14 15
6 6 7 8 9 10 10 10 8 6 6 8 9 9 9 10 12 13 14 15 15 15 14 14 13 13 13 13 14 14 15 15
10 10 11 11 11 12 12 12 12 12 12 12 13 14 14 14 14 14 14 14 14 14 14 14 14 13 14 14 15 15 15 16
12 12 12 12 12 12 12 12 12 12 13 13 13 13 13 13 14 14 14 14 14 14 14 14 14 15 15 15 16 16 16 16
12 12 12 12 12 13 13 13 12 13 13 14 14 13 14 15 15 15 16 15 15 16 16 16 16 16 16 16 17 17 17 16
14 13 13 13 13 13 13 13 13 14 14 14 14 15 15 16 17 17 17 17 17 17 17 17 16 15 15 15 16 16 15 15
16 15 14 15 14 14 14 14 14 14 15 15 14 17 17 16 17 17 17 17 18 18 17 17 16 14 14 14 15 15 15 15
17 17 16 15 14 16 15 15 16 17 16 16 15 16 16 17 17 17 17 17 17 17 17 16 15 14 14 14 15 15 15 15
19 18 18 18 17 18 18 18 18 18 18 18 18 18 18 18 18 17 17 16 17 17 17 17 17 15 15 16 16 16 16 15
21 20 20 20 19 20 19 20 21 20 19 18 18 18 19 18 17 17 17 17 17 18 18 19 19 16 16 16 17 17 16 15
22 23 22 20 20 21 21 22 20 20 20 20 19 19 20 19 19 19 20 19 19 20 19 19 18 17 15 15 17 17 18 18
23 24 23 22 21 22 22 21 21 21 22 21 21 20 20 20 20 20 20 20 20 20 20 19 18 17 16 16 16 17 19 19
24 25 25 25 24 24 23 22 22 22 22 21 20 19 19 19 20 20 20 21 21 22 22 21 20 19 17 17 17 18 19 20
24 25 25 24 24 23 22 21 22 22 22 22 22 21 20 19 19 20 21 21 22 23 23 22 21 20 19 19 20 20 20 21
25 26 26 25 25 25 23 22 22 23 23 23 23 23 23 22 20 21 20 19 21 22 23 23 22 20 18 19 21 21 21 25
26 26 27 26 27 26 25 25 24 24 24 25 25 25 24 25 25 20 19 19 19 18 20 21 18 18 18 18 19 19 20 30
28 28 28 27 28 27 27 26 26 26 26 26 26 26 27 27 27 28 26 21 20 20 20 19 18 18 18 18 20 21 23 28
29 29 30 29 30 29 29 28 28 28 27 27 27 28 28 28 29 30 30 30 28 24 21 20 18 18 19 20 23 28 27 28
30 31 31 31 31 31 31 30 30 27 28 31 32 32 31 31 31 32 31 30 29 27 24 24 20 20 21 22 29 29 29 29